Regional Weather Roundup
Issued by NWS Little Rock, AR

Home | Current Version | Previous Version | Graphics & Text | Print | Product List | Glossary On
Versions: 1 2 3 4 5 6 7 8 9 10 11 12 13 14 15 16 17 18 19 20 21 22 23 24 25 26 27 28 29 30 31 32 33 34 35 36 37 38 39 40 41 42 43 44 45 46 47 48 49 50
000
ASUS44 KLZK 260905
RWRLZK

WEATHER ROUNDUP FOR ARKANSAS
NATIONAL WEATHER SERVICE LITTLE ROCK AR
300 AM CST WED NOV 26 2014

NOTE: "FAIR" INDICATES FEW OR NO CLOUDS BELOW 12,000 FEET WITH NO
SIGNIFICANT WEATHER AND/OR OBSTRUCTIONS TO VISIBILITY.

ARZ001-003-010-029-261000-
NORTHWEST ARKANSAS

CITY           SKY/WX    TMP DP  RH WIND       PRES   REMARKS
FAYETTEVILLE   CLEAR     25  24  96 CALM      30.02F
FORT SMITH     CLEAR     33  28  81 NE7       30.06F WCI  27
HARRISON       PTCLDY    30  24  78 CALM      30.04F
BENTONVILLE    CLEAR     30  21  69 SE6       30.01F WCI  24
ROGERS         CLEAR     34  24  67 SE12      30.01F WCI  25
SILOAM SPGS    CLEAR     34  19  55 SE8       30.01F WCI  27
HIGHFILL       CLEAR     32  23  69 CALM      30.00F
$$

ARZ004-005-016-261000-
NORTH CENTRAL ARKANSAS

CITY           SKY/WX    TMP DP  RH WIND       PRES   REMARKS
BATESVILLE     PTCLDY    28  23  80 CALM      30.11F
FLIPPIN        PTCLDY    27  19  74 CALM      30.07F
MTN HOME       PTCLDY    29  21  72 S5        30.06F WCI  24
$$

ARZ040-041-261000-
WEST CENTRAL ARKANSAS

CITY           SKY/WX    TMP DP  RH WIND       PRES   REMARKS
MENA             N/A     32  30  93 CALM        N/A
MOUNT IDA      CLEAR     28  26  92 CALM      30.06F
$$

ARZ009-017-025-026-028-261000-
NORTHEAST ARKANSAS

CITY           SKY/WX    TMP DP  RH WIND       PRES   REMARKS
CORNING        FAIR      28  28 100 SE3       30.14S
JONESBORO      CLEAR     29  28  96 CALM      30.14F
NEWPORT        PTCLDY    32  30  92 SE6       30.14F WCI  26
WALNUT RIDGE   PTCLDY    30  25  80 CALM      30.13S
BLYTHEVILLE    CLEAR     37  28  70 SE5       30.16S
$$

ARZ022-023-033-042-044-261000-
CENTRAL ARKANSAS

CITY           SKY/WX    TMP DP  RH WIND       PRES   REMARKS
LITTLE ROCK    MOCLDY    33  29  85 CALM      30.13F
N LITTLE ROCK    N/A     37  32  80 S5        30.13F
JACKSONVILLE   PTCLDY    28  26  89 E2        30.12F
SEARCY         PTCLDY    28  27  96 CALM      30.14F
HOT SPRINGS    PTCLDY    32  29  88 CALM      30.10F
RUSSELLVILLE   CLEAR     28  26  92 CALM      30.09F
CLINTON        FAIR      25  25 100 CALM      30.14S
$$

ARZ036-261000-
EAST ARKANSAS

CITY           SKY/WX    TMP DP  RH WIND       PRES   REMARKS
WEST MEMPHIS   CLEAR     30  29  96 SE3       30.15S
$$

ARZ050-053-066-070-073-261000-
SOUTHWEST ARKANSAS

CITY           SKY/WX    TMP DP  RH WIND       PRES   REMARKS
ARKADELPHIA    FAIR      34  34 100 CALM      30.12F
CAMDEN         MOCLDY    34  32  93 CALM      30.14F
TEXARKANA      CLEAR     38  32  79 S7        30.11F
EL DORADO      MOCLDY    35  32  88 S3        30.14S
DE QUEEN       PTCLDY    34  33  96 CALM      30.09S
$$

ARZ056-057-069-261000-
SOUTHEAST ARKANSAS

CITY           SKY/WX    TMP DP  RH WIND       PRES   REMARKS
PINE BLUFF     PTCLDY    35  32  88 SE3       30.15S
STUTTGART      MOCLDY    37  30  75 SE5       30.15S
MONTICELLO     PTCLDY    33  30  88 CALM      30.16R

$$




USA.gov is the U.S. government's official web portal to all federal, state and local government web resources and services.